History for Miami, FL

Monday, November 12, 2012 — View Current Conditions

Jump to Data:

Date:
Airport Code:
Recently Viewed Airport Codes: KMIA
Daily Summary
  Actual Average Record
Temperature
Mean Temperature 77°F 75°F  
Max Temperature 82°F 82°F 89°F (2002)
Min Temperature 72°F 69°F 50°F (1913)
Degree Days
Heating Degree Days 0 0  
Month to date heating degree days 1 0  
Since 1 July heating degree days 1 0  
Cooling Degree Days 12 10  
Month to date cooling degree days 85 136  
Year to date cooling degree days 4324 4208  
Growing Degree Days 28 (Base 50)    
Moisture
Dew Point 66°F    
Average Humidity 69    
Maximum Humidity 79    
Minimum Humidity 58    
Precipitation
Precipitation 0.06 in 0.12 in 4.15 in (1954)
Month to date precipitation 0.08 1.56  
Year to date precipitation 86.01 58.15  
Snow
Snow 0.00 in in in ()
Month to date snowfall 0.0  
Since 1 July snowfall 0.0  
Since 1 September snowfall 0.0  
Snow Depth 0.00 in    
Sea Level Pressure
Sea Level Pressure 30.16 in    
Wind
Wind Speed 12 mph (East)    
Max Wind Speed 26 mph    
Max Gust Speed 31 mph    
Visibility 10 miles    
Events Rain    
T = Trace of Precipitation, MM = Missing Value Source: NWS Daily Summary

Show full METARS

(help) - Comma Delimited File

Hourly Observations

Time(EST) Temperature Dew Point Humidity Sea Level Pressure Visibility Wind Direction Wind Speed Gust Speed Precipitation Events Conditions
12:53 AM 73.9°F 64.9°F 73% 30.19 in 10.0 miles East 11.5 mph - N/A   Scattered Clouds
1:53 AM 73.9°F 64.0°F 71% 30.17 in 10.0 miles East 11.5 mph - N/A   Scattered Clouds
2:53 AM 75.0°F 64.9°F 71% 30.15 in 10.0 miles East 15.0 mph - 0.00 in Rain Light Rain
3:53 AM 73.9°F 64.9°F 73% 30.14 in 10.0 miles East 11.5 mph - 0.00 in   Scattered Clouds
4:53 AM 73.9°F 66.0°F 76% 30.14 in 10.0 miles East 15.0 mph 19.6 mph 0.00 in   Mostly Cloudy
5:53 AM 73.0°F 64.9°F 76% 30.15 in 10.0 miles East 12.7 mph - 0.00 in   Mostly Cloudy
6:53 AM 73.9°F 66.0°F 76% 30.17 in 10.0 miles East 11.5 mph - N/A   Mostly Cloudy
7:53 AM 75.0°F 66.9°F 76% 30.18 in 5.0 miles ENE 12.7 mph 19.6 mph 0.00 in Rain Light Rain
7:56 AM 73.4°F 66.2°F 78% 30.18 in 4.0 miles ENE 19.6 mph 27.6 mph 0.00 in Rain Light Rain
8:30 AM 73.4°F 69.8°F 88% 30.18 in 10.0 miles East 9.2 mph 19.6 mph 0.05 in   Mostly Cloudy
8:46 AM 75.2°F 69.8°F 83% 30.19 in 10.0 miles East 11.5 mph - 0.05 in Rain Light Rain
8:53 AM 75.9°F 68.0°F 76% 30.19 in 10.0 miles East 13.8 mph - 0.05 in Rain Light Rain
9:53 AM 78.1°F 66.9°F 68% 30.20 in 10.0 miles East 15.0 mph 23.0 mph 0.00 in   Scattered Clouds
10:01 AM - - N/A% - - East 15.0 mph 25.3 mph N/A   Mostly Cloudy
10:53 AM 75.9°F 68.0°F 76% 30.19 in 10.0 miles East 9.2 mph - 0.01 in   Mostly Cloudy
11:53 AM 80.1°F 66.9°F 64% 30.17 in 10.0 miles East 16.1 mph - N/A   Mostly Cloudy
12:53 PM 81.0°F 66.0°F 60% 30.16 in 10.0 miles East 12.7 mph - N/A   Mostly Cloudy
1:53 PM 80.1°F 64.9°F 60% 30.14 in 10.0 miles ENE 15.0 mph - N/A   Mostly Cloudy
2:53 PM 79.0°F 66.0°F 64% 30.13 in 10.0 miles ENE 15.0 mph 21.9 mph 0.00 in   Mostly Cloudy
3:53 PM 80.1°F 64.9°F 60% 30.12 in 10.0 miles East 18.4 mph 24.2 mph N/A   Scattered Clouds
4:53 PM 79.0°F 66.0°F 64% 30.12 in 10.0 miles ENE 12.7 mph 19.6 mph N/A   Mostly Cloudy
5:53 PM 77.0°F 64.9°F 66% 30.13 in 10.0 miles ENE 8.1 mph 16.1 mph N/A   Scattered Clouds
6:53 PM 75.9°F 66.0°F 71% 30.14 in 10.0 miles ENE 6.9 mph - N/A   Scattered Clouds
7:53 PM 75.9°F 66.0°F 71% 30.14 in 10.0 miles ENE 10.4 mph - N/A   Scattered Clouds
8:53 PM 77.0°F 66.0°F 69% 30.15 in 10.0 miles ENE 8.1 mph - N/A   Mostly Cloudy
9:53 PM 77.0°F 66.0°F 69% 30.15 in 10.0 miles East 11.5 mph - N/A   Scattered Clouds
10:53 PM 75.0°F 66.0°F 73% 30.14 in 10.0 miles East 10.4 mph - N/A   Scattered Clouds
11:53 PM 75.9°F 66.0°F 71% 30.12 in 10.0 miles ENE 12.7 mph - N/A   Scattered Clouds